When you browse on this site, cookies collect data to enhance your experience and personalize the content and advertising you see.
Visit our Privacy Policy to learn more. By continuing to use the site, you agree to this use of cookies and data.
  • In Czech Republic
  • List of Countries
  • For 7 days
  • Water Temperature
  • Weather Map
  • Weather Widgets
  • user-avatar
    Login

    Hourly Weather San Juan

    Today, 18 September, Wednesday

    Time Temperature Precipitation Wind Pressure Humidity
    00:00 +12°C° 0 mm 0 mps 704 mmHg 34%
    01:00 +11°C° 0 mm 0 mps 704 mmHg 38%
    02:00 +13°C° 0 mm 1 mps 704 mmHg 37%
    03:00 +13°C° 0 mm 1 mps 704 mmHg 35%
    04:00 +13°C° 0 mm 2 mps 703 mmHg 34%
    05:00 +14°C° 0 mm 2 mps 704 mmHg 30%
    06:00 +16°C° 0 mm 2 mps 704 mmHg 27%
    07:00 +17°C° 0 mm 3 mps 704 mmHg 23%
    08:00 +19°C° 0 mm 3 mps 703 mmHg 22%
    09:00 +20°C° 0 mm 2 mps 703 mmHg 20%
    10:00 +23°C° 0 mm 2 mps 703 mmHg 18%
    11:00 +24°C° 0 mm 2 mps 702 mmHg 16%
    12:00 +26°C° 0 mm 2 mps 701 mmHg 14%
    13:00 +27°C° 0 mm 2 mps 700 mmHg 12%
    14:00 +28°C° 0 mm 2 mps 699 mmHg 12%
    15:00 +28°C° 0 mm 2 mps 698 mmHg 11%
    16:00 +29°C° 0 mm 2 mps 698 mmHg 10%
    17:00 +26°C° 0 mm 2 mps 697 mmHg 15%
    18:00 +23°C° 0 mm 1 mps 697 mmHg 21%
    19:00 +20°C° 0 mm 1 mps 697 mmHg 26%
    20:00 +19°C° 0 mm 1 mps 697 mmHg 26%
    21:00 +18°C° 0 mm 2 mps 697 mmHg 26%
    22:00 +18°C° 0 mm 2 mps 697 mmHg 26%
    23:00 +17°C° 0 mm 2 mps 696 mmHg 27%

    Tomorrow, 19 September, Thursday

    Time Temperature Precipitation Wind Pressure Humidity
    00:00 +17°C° 0 mm 2 mps 696 mmHg 29%
    01:00 +16°C° 0 mm 2 mps 696 mmHg 31%
    02:00 +15°C° 0 mm 6 mps 697 mmHg 29%
    03:00 +14°C° 0 mm 10 mps 698 mmHg 27%
    04:00 +14°C° 0 mm 14 mps 699 mmHg 26%
    05:00 +12°C° 0 mm 14 mps 700 mmHg 30%
    06:00 +10°C° 0 mm 13 mps 701 mmHg 35%
    07:00 +9°C° 0 mm 13 mps 702 mmHg 40%
    08:00 +10°C° 0 mm 12 mps 702 mmHg 34%
    09:00 +12°C° 0 mm 10 mps 703 mmHg 28%
    10:00 +13°C° 0 mm 9 mps 703 mmHg 22%
    11:00 +15°C° 0 mm 8 mps 703 mmHg 21%
    12:00 +15°C° 0 mm 8 mps 703 mmHg 19%
    13:00 +16°C° 0 mm 8 mps 703 mmHg 17%
    14:00 +16°C° 0 mm 8 mps 703 mmHg 16%
    15:00 +16°C° 0 mm 8 mps 703 mmHg 15%
    16:00 +16°C° 0 mm 7 mps 702 mmHg 14%
    17:00 +14°C° 0 mm 7 mps 703 mmHg 14%
    18:00 +13°C° 0 mm 6 mps 704 mmHg 15%
    19:00 +10°C° 0 mm 5 mps 705 mmHg 16%
    20:00 +11°C° 0 mm 4 mps 706 mmHg 16%
    21:00 +10°C° 0 mm 4 mps 706 mmHg 17%
    22:00 +8°C° 0 mm 4 mps 707 mmHg 18%
    23:00 +9°C° 0 mm 3 mps 707 mmHg 18%

    Day after tomorrow, 20 September, Friday

    Time Temperature Precipitation Wind Pressure Humidity
    00:00 +8°C° 0 mm 2 mps 706 mmHg 19%
    01:00 +7°C° 0 mm 2 mps 706 mmHg 20%
    02:00 +7°C° 0 mm 1 mps 706 mmHg 21%
    03:00 +6°C° 0 mm 1 mps 706 mmHg 23%
    04:00 +4°C° 0 mm 0 mps 706 mmHg 25%
    05:00 +6°C° 0 mm 0 mps 706 mmHg 22%
    06:00 +9°C° 0 mm 0 mps 707 mmHg 18%
    07:00 +11°C° 0 mm 0 mps 708 mmHg 15%
    08:00 +14°C° 0 mm 1 mps 708 mmHg 14%
    09:00 +15°C° 0 mm 1 mps 708 mmHg 13%
    10:00 +18°C° 0 mm 1 mps 708 mmHg 12%
    11:00 +19°C° 0 mm 1 mps 708 mmHg 11%
    12:00 +20°C° 0 mm 1 mps 708 mmHg 11%
    13:00 +20°C° 0 mm 2 mps 707 mmHg 10%
    14:00 +21°C° 0 mm 2 mps 707 mmHg 10%
    15:00 +21°C° 0 mm 2 mps 707 mmHg 10%
    16:00 +21°C° 0 mm 2 mps 707 mmHg 10%
    17:00 +20°C° 0 mm 1 mps 707 mmHg 13%
    18:00 +16°C° 0 mm 1 mps 707 mmHg 16%
    19:00 +13°C° 0 mm 1 mps 707 mmHg 19%
    20:00 +13°C° 0 mm 1 mps 707 mmHg 21%
    21:00 +12°C° 0 mm 1 mps 707 mmHg 23%
    22:00 +12°C° 0 mm 1 mps 708 mmHg 24%
    23:00 +12°C° 0 mm 1 mps 707 mmHg 24%

    21 September, Saturday

    Time Temperature Precipitation Wind Pressure Humidity
    00:00 +12°C° 0 mm 2 mps 707 mmHg 25%
    01:00 +10°C° 0 mm 2 mps 707 mmHg 25%
    02:00 +10°C° 0 mm 2 mps 707 mmHg 25%
    03:00 +10°C° 0 mm 2 mps 706 mmHg 25%
    04:00 +10°C° 0 mm 2 mps 706 mmHg 26%
    05:00 +12°C° 0 mm 2 mps 706 mmHg 23%
    06:00 +14°C° 0 mm 2 mps 707 mmHg 20%
    07:00 +16°C° 0 mm 2 mps 707 mmHg 17%
    08:00 +18°C° 0 mm 2 mps 707 mmHg 15%
    09:00 +20°C° 0 mm 2 mps 707 mmHg 13%
    10:00 +23°C° 0 mm 2 mps 708 mmHg 11%
    11:00 +24°C° 0 mm 2 mps 707 mmHg 10%
    12:00 +25°C° 0 mm 3 mps 707 mmHg 9%
    13:00 +26°C° 0 mm 3 mps 706 mmHg 9%
    14:00 +26°C° 0 mm 4 mps 706 mmHg 9%
    15:00 +26°C° 0 mm 5 mps 706 mmHg 9%
    16:00 +26°C° 0 mm 5 mps 706 mmHg 9%
    17:00 +23°C° 0 mm 5 mps 707 mmHg 11%
    18:00 +21°C° 0 mm 4 mps 707 mmHg 13%
    19:00 +19°C° 0 mm 4 mps 708 mmHg 14%
    20:00 +18°C° 0 mm 4 mps 708 mmHg 17%
    21:00 +18°C° 0 mm 4 mps 708 mmHg 19%
    22:00 +17°C° 0 mm 4 mps 708 mmHg 21%
    23:00 +15°C° 0 mm 4 mps 708 mmHg 22%

    22 September, Sunday

    Time Temperature Precipitation Wind Pressure Humidity
    00:00 +14°C° 0 mm 5 mps 708 mmHg 22%
    01:00 +14°C° 0 mm 5 mps 708 mmHg 23%
    02:00 +13°C° 0 mm 4 mps 708 mmHg 26%
    03:00 +11°C° 0 mm 4 mps 708 mmHg 29%
    04:00 +10°C° 0 mm 3 mps 708 mmHg 32%
    05:00 +11°C° 0 mm 3 mps 708 mmHg 30%
    06:00 +12°C° 0 mm 3 mps 709 mmHg 28%
    07:00 +13°C° 0 mm 3 mps 709 mmHg 25%
    08:00 +16°C° 0 mm 3 mps 709 mmHg 23%
    09:00 +18°C° 0 mm 3 mps 709 mmHg 21%
    10:00 +20°C° 0 mm 3 mps 709 mmHg 19%
    11:00 +21°C° 0 mm 3 mps 708 mmHg 18%
    12:00 +23°C° 0 mm 2 mps 708 mmHg 17%
    13:00 +24°C° 0 mm 2 mps 707 mmHg 16%
    14:00 +25°C° 0 mm 2 mps 707 mmHg 16%
    15:00 +25°C° 0 mm 2 mps 706 mmHg 16%
    16:00 +26°C° 0 mm 2 mps 706 mmHg 16%
    17:00 +23°C° 0 mm 2 mps 706 mmHg 20%
    18:00 +20°C° 0 mm 2 mps 706 mmHg 23%
    19:00 +17°C° 0 mm 2 mps 706 mmHg 27%
    20:00 +17°C° 0 mm 2 mps 707 mmHg 29%
    21:00 +17°C° 0 mm 3 mps 707 mmHg 31%
    22:00 +17°C° 0 mm 3 mps 707 mmHg 33%
    23:00 +16°C° 0 mm 3 mps 707 mmHg 34%

    23 September, Monday

    Time Temperature Precipitation Wind Pressure Humidity
    00:00 +14°C° 0 mm 3 mps 707 mmHg 35%
    01:00 +15°C° 0 mm 2 mps 707 mmHg 37%
    02:00 +14°C° 0 mm 2 mps 707 mmHg 40%
    03:00 +13°C° 0 mm 2 mps 707 mmHg 42%
    04:00 +12°C° 0 mm 2 mps 707 mmHg 45%
    05:00 +14°C° 0 mm 2 mps 708 mmHg 40%
    06:00 +16°C° 0 mm 2 mps 709 mmHg 35%
    07:00 +18°C° 0 mm 2 mps 710 mmHg 30%
    08:00 +20°C° 0 mm 2 mps 710 mmHg 27%
    09:00 +21°C° 0 mm 2 mps 711 mmHg 24%
    10:00 +24°C° 0 mm 2 mps 711 mmHg 21%
    11:00 +25°C° 0 mm 3 mps 711 mmHg 19%
    12:00 +26°C° 0 mm 3 mps 710 mmHg 16%
    13:00 +28°C° 0 mm 4 mps 710 mmHg 14%
    14:00 +28°C° 0 mm 4 mps 710 mmHg 14%
    15:00 +28°C° 0 mm 4 mps 709 mmHg 14%
    16:00 +28°C° 0 mm 4 mps 709 mmHg 13%
    17:00 +25°C° 0 mm 3 mps 709 mmHg 17%
    18:00 +22°C° 0 mm 3 mps 710 mmHg 21%
    19:00 +19°C° 0 mm 2 mps 710 mmHg 24%
    20:00 +18°C° 0 mm 2 mps 710 mmHg 26%
    21:00 +18°C° 0 mm 2 mps 710 mmHg 27%
    22:00 +17°C° 0 mm 2 mps 710 mmHg 29%
    23:00 +16°C° 0 mm 1 mps 710 mmHg 33%
    Show more